This demonstration page uses our WeatherBlox Daily Observations layout. Learn more.

Left ArrowRight Arrow

38.20091, -84.87328

Hourly Observations for January 30, 2016

Temp ( °F °C ) Dew Point ( °F °C ) Humidity (%) Winds ( mph kmh ) Pressure ( in mb ) Visibility ( mi km ) Precip ( " mm )
12:53 am 00:53 Clear 32 0 23 -5 69 69 S 6 9 29.96 1015 10 16 0.00 0.00
1:53 am 01:53 Clear 33 0.6 23 -5 66 66 S 7 11 29.94 1014 10 16 0.00 0.00
2:53 am 02:53 Clear 31 -0.6 23 -5 72 72 S 3 6 29.94 1014 10 16 0.00 0.00
3:53 am 03:53 Clear 32 0 23 -5 69 69 S 5 7 29.94 1014 10 16 0.00 0.00
4:53 am 04:53 Clear 31 -0.6 23 -5 72 72 S 5 7 29.94 1014 10 16 0.00 0.00
5:53 am 05:53 Clear 31 -0.6 23 -5 72 72 S 6 9 29.93 1014 10 16 0.00 0.00
6:53 am 06:53 Clear 33 0.6 23 -5 66 66 SSE 5 7 29.92 1013 10 16 0.00 0.00
7:53 am 07:53 Sunny 34 1.1 25 -3.9 70 70 S 6 9 29.92 1013 10 16 0.00 0.00
8:53 am 08:53 Sunny 40 4.4 27 -2.8 60 60 S 9 15 29.90 1013 10 16 0.00 0.00
9:53 am 09:53 Sunny 45 7.2 30 -1.1 56 56 S 14 22 29.90 1013 10 16 0.00 0.00
10:53 am 10:53 Sunny 54 12.2 32 0 43 43 SSW 12 19 29.89 1012 10 16 0.00 0.00
11:53 am 11:53 Sunny 59 15 33 0.6 38 38 SW 16 26 29.87 1011 10 16 0.00 0.00
12:53 pm 12:53 Sunny 62 16.7 33 0.6 34 34 SSW 17 28 29.83 1010 10 16 0.00 0.00
1:53 pm 13:53 Sunny 63 17.2 33 0.6 33 33 SSW 21 33 29.80 1009 10 16 0.00 0.00
2:53 pm 14:53 Sunny 65 18.3 34 1.1 32 32 SSW 15 24 29.78 1009 10 16 0.00 0.00
3:53 pm 15:53 Sunny 64 17.8 34 1.1 33 33 S 20 31 29.76 1008 10 16 0.00 0.00
4:53 pm 16:53 Sunny 63 17.2 33 0.6 33 33 SSW 14 22 29.77 1008 10 16 0.00 0.00
5:53 pm 17:53 Sunny 60 15.6 35 1.7 39 39 SSW 14 22 29.79 1009 10 16 0.00 0.00
6:53 pm 18:53 Clear 59 15 36 2.2 42 42 SSW 10 17 29.80 1009 10 16 0.00 0.00
7:53 pm 19:53 Clear 58 14.4 36 2.2 44 44 SSW 10 17 29.83 1010 10 16 0.00 0.00
8:53 pm 20:53 Clear 58 14.4 35 1.7 42 42 SSW 9 15 29.84 1010 10 16 0.00 0.00
9:53 pm 21:53 Clear 57 13.9 34 1.1 42 42 SSW 13 20 29.84 1010 10 16 0.00 0.00
10:53 pm 22:53 Cloudy 58 14.4 34 1.1 41 41 SSW 17 28 29.83 1010 10 16 0.00 0.00
11:53 pm 23:53 Cloudy 59 15 35 1.7 41 41 SSW 18 30 29.83 1010 10 16 0.00 0.00

Powered by AerisWeather